{"data":{"norad_id":53173,"epoch":"2026-05-24T18:35:46.672800Z","epoch_age_seconds":91524,"freshness":"FRESH","line1":"1 53173U 22083AT  26144.77484575 -.00000400  00000+0 -70417-5 0  9997","line2":"2 53173  53.2135 157.5510 0001389  92.5437 267.5715 15.08840555213184","mean_motion":15.08840555,"eccentricity":0.0001389,"inclination_deg":53.2135,"raan_deg":157.551,"arg_perigee_deg":92.5437,"mean_anomaly_deg":267.5715,"bstar":-7.0417e-6,"rev_number":21318,"period_min":95.437519572769,"perigee_km":538.78079920126,"apogee_km":540.70258590205,"semimajor_km":6917.8786925517,"source":"CELESTRAK","updated_at":"2026-05-25T13:38:17.324468Z"}}